St. Joseph, KS

8:44 AM CDT on May 26, 2017 (GMT -0500)
Rosecrans Memorial

Weather History for KSTJ - July, 2014

Change the Weather History Date:

Saturday, July 5, 2014

  Actual Average Record
Temperature  
Mean Temperature 76 °F 77 °F  
Max Temperature 83 °F 87 °F 106 °F (1911)
Min Temperature 68 °F 67 °F 41 °F (1972)
Degree Days  
Heating Degree Days 0 0  
Month to date heating degree days 4 0  
Since 1 June heating degree days 5 8  
Since 1 July heating degree days 4 0  
Cooling Degree Days 11 12  
Month to date cooling degree days 24 58  
Year to date cooling degree days 464 438  
Since 1 June cooling degree days 303 325  
Growing Degree Days 25 (Base 50)    
Moisture  
Dew Point 68 °F    
Average Humidity 81    
Maximum Humidity 93    
Minimum Humidity 68    
Precipitation  
Precipitation 2.59 in 0.13 in 3.41 in (1961)
Month to date precipitation 2.59 0.73  
Year to date precipitation 18.27 17.86  
Sea Level Pressure  
Sea Level Pressure 30.05 in    
Wind  
Wind Speed 12 mph (South)    
Max Wind Speed 33 mph    
Max Gust Speed 48 mph    
Visibility 7 miles    
Events Fog , Rain , Thunderstorm    
T = Trace of Precipitation, MM = Missing Value Source: NWS Daily Summary

Daily Weather History Graph

Daily Weather History Graph

Search for Another Location

Airport or City:

Trip Planner

Search our weather history database for the weather conditions in past years. The results will help you decide how hot, cold, wet, or windy it might be!

Date:

Astronomy

Jul. 05, 2014 Rise Set
Actual Time 5:57 AM CDT 8:50 PM CDT
Civil Twilight 5:25 AM CDT 9:23 PM CDT
Nautical Twilight 4:44 AM CDT 10:03 PM CDT
Astronomical Twilight 3:57 AM CDT 10:50 PM CDT
Moon 1:51 PM CDT (7/5) 12:44 AM CDT (7/5)
Length of Visible Light 15h 58m
Length of Day
14h 53m
First Quarter, 52% of the Moon is Illuminated
Jul 5
First Quarter
Jul 12
Full
Jul 18
Last Quarter
Jul 26
New
Aug 3
First Quarter

Hourly Weather History & Observations

Time (CDT) Temp. Heat Index Dew Point Humidity Pressure Visibility Wind Dir Wind Speed Gust Speed Precip Events Conditions
12:53 AM 70.0 °F - 60.1 °F 71% 30.15 in 10.0 mi SE 9.2 mph - N/A   Mostly Cloudy
1:53 AM 70.0 °F - 60.1 °F 71% 30.13 in 10.0 mi SE 10.4 mph - N/A   Scattered Clouds
2:53 AM 70.0 °F - 60.1 °F 71% 30.11 in 10.0 mi South 9.2 mph - N/A   Clear
3:53 AM 70.0 °F - 61.0 °F 73% 30.06 in 10.0 mi South 11.5 mph - N/A   Mostly Cloudy
4:53 AM 70.0 °F - 61.0 °F 73% 30.06 in 10.0 mi South 12.7 mph - N/A   Mostly Cloudy
5:53 AM 70.0 °F - 62.1 °F 76% 30.06 in 10.0 mi SSE 9.2 mph - N/A   Clear
6:27 AM 70.0 °F - 63.0 °F 78% 30.09 in 10.0 mi SSE 8.1 mph - N/A   Scattered Clouds
6:53 AM 70.0 °F - 64.0 °F 81% 30.09 in 10.0 mi SSE 6.9 mph - N/A   Mostly Cloudy
7:53 AM 72.0 °F - 64.9 °F 78% 30.02 in 10.0 mi South 16.1 mph 21.9 mph N/A   Partly Cloudy
8:53 AM 72.0 °F - 66.0 °F 81% 30.07 in 10.0 mi Calm Calm - N/A   Mostly Cloudy
9:06 AM 72.0 °F - 66.0 °F 81% 30.13 in 10.0 mi NNW 9.2 mph - N/A Thunderstorm Overcast
9:25 AM 72.0 °F - 66.0 °F 81% 30.13 in 10.0 mi NNE 8.1 mph - N/A Thunderstorm Thunderstorm
9:46 AM 69.1 °F - 66.9 °F 93% 30.13 in 1.8 mi NE 12.7 mph - 0.19 in Rain , Thunderstorm Heavy Thunderstorms and Rain
9:53 AM 69.1 °F - 66.9 °F 93% 30.12 in 1.5 mi ENE 8.1 mph - 0.23 in Rain , Thunderstorm Heavy Thunderstorms and Rain
9:58 AM 69.1 °F - 68.0 °F 96% 30.14 in 3.0 mi ENE 6.9 mph - 0.01 in Rain , Thunderstorm Light Thunderstorms and Rain
10:10 AM 69.1 °F - 68.0 °F 96% 30.15 in 1.5 mi Variable 4.6 mph - 0.14 in Rain , Thunderstorm Heavy Thunderstorms and Rain
10:15 AM 69.1 °F - 68.0 °F 96% 30.15 in 0.5 mi South 8.1 mph - 0.34 in Fog , Rain , Thunderstorm Heavy Thunderstorms and Rain
10:25 AM 71.1 °F - 66.9 °F 87% 30.12 in 0.2 mi Variable 4.6 mph 20.7 mph 0.80 in Fog , Rain , Thunderstorm Heavy Thunderstorms and Rain
10:32 AM 71.1 °F - 68.0 °F 90% 30.14 in 0.5 mi SW 11.5 mph - 1.01 in Fog , Rain , Thunderstorm Heavy Thunderstorms and Rain
10:45 AM 69.1 °F - 66.9 °F 93% 30.14 in 0.8 mi South 12.7 mph 20.7 mph 1.27 in Rain , Thunderstorm Heavy Thunderstorms and Rain
10:47 AM 69.8 °F - 66.2 °F 88% 30.13 in 1.0 mi South 16.1 mph 20.7 mph 1.29 in Rain , Thunderstorm Heavy Thunderstorms and Rain
10:53 AM 68.0 °F - 66.0 °F 93% 30.12 in 1.2 mi South 12.7 mph - 1.39 in Rain , Thunderstorm Heavy Thunderstorms and Rain
11:06 AM 68.0 °F - 66.0 °F 93% 30.11 in 0.5 mi SW 16.1 mph 26.5 mph 0.36 in Fog , Rain , Thunderstorm Heavy Thunderstorms and Rain
11:21 AM 72.0 °F - 66.0 °F 81% 30.07 in 1.0 mi SW 25.3 mph 36.8 mph 0.63 in Rain , Thunderstorm Thunderstorms and Rain
11:26 AM 72.0 °F - 66.9 °F 84% 30.07 in 2.0 mi SSW 20.7 mph 36.8 mph 0.66 in Rain , Thunderstorm Thunderstorms and Rain
11:39 AM 70.0 °F - 66.0 °F 87% 30.08 in 0.8 mi SW 33.4 mph 48.3 mph 0.88 in Rain , Thunderstorm Heavy Thunderstorms and Rain
11:46 AM 75.0 °F - 62.1 °F 64% 30.07 in 0.5 mi South 9.2 mph 48.3 mph 0.96 in Rain , Thunderstorm Thunderstorms and Rain
11:49 AM 77.0 °F - 62.6 °F 61% 30.06 in 1.5 mi SW 9.2 mph 17.3 mph 0.96 in Rain , Thunderstorm Light Thunderstorms and Rain
11:51 AM 75.2 °F - 62.6 °F 65% 30.06 in 4.0 mi SSW 11.5 mph 17.3 mph 0.96 in Rain , Thunderstorm Light Thunderstorms and Rain
11:53 AM 73.0 °F - 63.0 °F 71% 30.05 in 9.0 mi South 16.1 mph - 0.96 in Rain , Thunderstorm Light Thunderstorms and Rain
12:26 PM 71.1 °F - 66.9 °F 87% 30.07 in 9.0 mi South 16.1 mph - 0.01 in Rain , Thunderstorm Light Rain
12:43 PM 72.0 °F - 68.0 °F 87% 30.06 in 9.0 mi South 17.3 mph - 0.01 in   Clear
12:53 PM 73.0 °F - 69.1 °F 87% 30.04 in 8.0 mi South 18.4 mph - 0.01 in   Clear
1:53 PM 77.0 °F - 70.0 °F 79% 30.00 in 10.0 mi South 19.6 mph 25.3 mph N/A   Clear
2:53 PM 79.0 °F - 71.1 °F 77% 29.99 in 9.0 mi South 18.4 mph - N/A   Clear
3:53 PM 80.1 °F 83.8 °F 72.0 °F 76% 29.98 in 8.0 mi South 16.1 mph 29.9 mph N/A   Clear
4:53 PM 80.1 °F 83.8 °F 72.0 °F 76% 29.95 in 9.0 mi South 17.3 mph - N/A   Clear
5:53 PM 82.9 °F 89.4 °F 73.9 °F 74% 29.92 in 10.0 mi South 13.8 mph 24.2 mph N/A   Clear
6:53 PM 82.0 °F 87.9 °F 73.9 °F 76% 29.92 in 10.0 mi South 8.1 mph - N/A   Mostly Cloudy
7:07 PM 82.0 °F 88.6 °F 75.0 °F 79% 29.94 in 10.0 mi South 10.4 mph - N/A Thunderstorm Thunderstorm
7:35 PM 82.0 °F 88.6 °F 75.0 °F 79% 29.95 in 10.0 mi South 9.2 mph - N/A Thunderstorm Clear
7:45 PM 82.0 °F 87.9 °F 73.9 °F 76% 29.94 in 10.0 mi South 9.2 mph - N/A Thunderstorm Thunderstorm
7:53 PM 82.0 °F 87.9 °F 73.9 °F 76% 29.92 in 10.0 mi South 10.4 mph - N/A Thunderstorm Thunderstorm
7:58 PM 82.0 °F 87.9 °F 73.9 °F 76% 29.94 in 10.0 mi South 9.2 mph - N/A   Clear
8:53 PM 79.0 °F - 73.9 °F 84% 29.92 in 9.0 mi SSE 8.1 mph - N/A   Clear
9:53 PM 78.1 °F - 73.0 °F 84% 29.93 in 9.0 mi South 6.9 mph - N/A   Clear
10:53 PM 77.0 °F - 73.0 °F 88% 29.93 in 9.0 mi South 10.4 mph - N/A   Scattered Clouds
11:53 PM 79.0 °F - 72.0 °F 79% 29.92 in 9.0 mi South 11.5 mph - N/A   Clear